| time (UTC) | temp F | wind direction | speed MPH | gust MPH | rain 1hr in | rain 24hr in | rain mn in | humidity % | barometer mb |
| 20260504185825 | 80 | 351 | 0.0 | 0.0 | 0.00 | 0.00 | 0.00 | 41 | 1012.4 |
| 20260504184801 | 80 | 351 | 0.0 | 0.0 | 0.00 | 0.00 | 0.00 | 41 | 1012.4 |
| 20260504183738 | 78 | 351 | 0.0 | 0.0 | 0.00 | 0.00 | 0.00 | 43 | 1012.4 |
| 20260504181652 | 78 | 351 | 0.0 | 0.0 | 0.00 | 0.00 | 0.00 | 43 | 1012.4 |
| 20260504180629 | 78 | 351 | 0.0 | 0.0 | 0.00 | 0.00 | 0.00 | 44 | 1012.4 |
| 20260504175606 | 77 | 351 | 0.0 | 0.0 | 0.00 | 0.00 | 0.00 | 44 | 1012.4 |
| 20260504174543 | 77 | 351 | 0.0 | 0.0 | 0.00 | 0.00 | 0.00 | 45 | 1013.4 |
| 20260504173519 | 77 | 351 | 0.0 | 0.0 | 0.00 | 0.00 | 0.00 | 45 | 1013.4 |
| 20260504172457 | 77 | 351 | 0.0 | 0.0 | 0.00 | 0.00 | 0.00 | 45 | 1013.4 |
| 20260504171433 | 77 | 351 | 0.0 | 0.0 | 0.00 | 0.00 | 0.00 | 44 | 1013.4 |
| 20260504170407 | 76 | 351 | 0.0 | 0.0 | 0.00 | 0.00 | 0.00 | 46 | 1013.4 |
| 20260504160149 | 72 | 351 | 0.0 | 0.0 | 0.00 | 0.00 | 0.00 | 56 | 1014.4 |
| 20260504150955 | 69 | 351 | 0.0 | 0.0 | 0.00 | 0.00 | 0.00 | 62 | 1015.4 |
| 20260504140736 | 67 | 351 | 0.0 | 0.0 | 0.00 | 0.00 | 0.00 | 64 | 1015.4 |
| 20260504130520 | 61 | 351 | 0.0 | 0.0 | 0.00 | 0.00 | 0.00 | 78 | 1016.4 |
| 20260504120305 | 60 | 351 | 0.0 | 0.0 | 0.00 | 0.00 | 0.00 | 74 | 1015.4 |
| 20260504081447 | 62 | 351 | 0.0 | 0.0 | 0.00 | 0.00 | 0.00 | 65 | 1016.4 |
| 20260504070208 | 63 | 351 | 0.0 | 0.0 | 0.00 | 0.00 | 0.00 | 61 | 1017.4 |
| 20260504045733 | 66 | 351 | 0.0 | 0.0 | 0.00 | 0.00 | 0.00 | 48 | 1017.4 |
| 20260504044710 | 66 | 351 | 0.0 | 0.0 | 0.00 | 0.00 | 0.00 | 47 | 1017.4 |
| 20260504043647 | 66 | 351 | 0.0 | 0.0 | 0.00 | 0.00 | 0.00 | 47 | 1017.4 |
| 20260504042626 | 67 | 351 | 0.0 | 0.0 | 0.00 | 0.00 | 0.00 | 46 | 1017.4 |
| 20260504041602 | 67 | 351 | 0.0 | 0.0 | 0.00 | 0.00 | 0.00 | 45 | 1017.4 |
| 20260504040539 | 67 | 351 | 0.0 | 0.0 | 0.00 | 0.00 | 0.00 | 43 | 1017.4 |
| 20260504035515 | 67 | 351 | 0.0 | 0.0 | 0.00 | 0.00 | 0.00 | 43 | 1017.4 |
| 20260504033430 | 68 | 351 | 0.0 | 0.0 | 0.00 | 0.00 | 0.00 | 41 | 1017.4 |
| 20260504032407 | 69 | 351 | 0.0 | 0.0 | 0.00 | 0.00 | 0.00 | 40 | 1017.4 |
| 20260504031345 | 69 | 351 | 0.0 | 0.0 | 0.00 | 0.00 | 0.00 | 38 | 1017.4 |
| 20260504030322 | 69 | 351 | 0.0 | 0.0 | 0.00 | 0.00 | 0.00 | 38 | 1017.4 |
| 20260504025259 | 70 | 351 | 0.0 | 0.0 | 0.00 | 0.00 | 0.00 | 37 | 1017.4 |
| 20260504024235 | 70 | 351 | 0.0 | 0.0 | 0.00 | 0.00 | 0.00 | 36 | 1017.4 |
| 20260504023213 | 71 | 351 | 0.0 | 0.0 | 0.00 | 0.00 | 0.00 | 34 | 1016.4 |
| 20260504022150 | 71 | 351 | 0.0 | 0.0 | 0.00 | 0.00 | 0.00 | 34 | 1016.4 |
| 20260504021127 | 71 | 351 | 0.0 | 0.0 | 0.00 | 0.00 | 0.00 | 33 | 1016.4 |
| 20260504020104 | 72 | 351 | 0.0 | 0.0 | 0.00 | 0.00 | 0.00 | 33 | 1016.4 |
| 20260504014017 | 72 | 351 | 0.0 | 0.0 | 0.00 | 0.00 | 0.00 | 32 | 1016.4 |
| 20260504012954 | 72 | 351 | 0.0 | 0.0 | 0.00 | 0.00 | 0.00 | 31 | 1016.4 |
| 20260504011932 | 73 | 351 | 0.0 | 0.0 | 0.00 | 0.00 | 0.00 | 31 | 1016.4 |
| 20260504010909 | 73 | 351 | 0.0 | 0.0 | 0.00 | 0.00 | 0.00 | 31 | 1016.4 |
| 20260504005844 | 74 | 351 | 0.0 | 0.0 | 0.00 | 0.00 | 0.00 | 31 | 1016.4 |
| 20260504004821 | 74 | 351 | 0.0 | 0.0 | 0.00 | 0.00 | 0.00 | 29 | 1016.4 |
| 20260504003759 | 75 | 351 | 0.0 | 0.0 | 0.00 | 0.00 | 0.00 | 28 | 1016.4 |
| 20260504002736 | 75 | 351 | 0.0 | 0.0 | 0.00 | 0.00 | 0.00 | 27 | 1016.4 |
| 20260504001712 | 76 | 351 | 0.0 | 0.0 | 0.00 | 0.00 | 0.00 | 26 | 1016.4 |
| 20260504000648 | 76 | 351 | 0.0 | 0.0 | 0.00 | 0.00 | 0.00 | 26 | 1016.4 |
| 20260503235625 | 77 | 351 | 0.0 | 0.0 | 0.00 | 0.00 | 0.00 | 25 | 1016.4 |
| 20260503233540 | 77 | 351 | 0.0 | 0.0 | 0.00 | 0.00 | 0.00 | 25 | 1016.4 |
| 20260503232515 | 77 | 351 | 0.0 | 0.0 | 0.00 | 0.00 | 0.00 | 25 | 1016.4 |
| 20260503231453 | 77 | 351 | 0.0 | 0.0 | 0.00 | 0.00 | 0.00 | 25 | 1016.4 |
| 20260503230430 | 77 | 351 | 0.0 | 0.0 | 0.00 | 0.00 | 0.00 | 25 | 1016.4 |
| 20260503225406 | 78 | 351 | 0.0 | 0.0 | 0.00 | 0.00 | 0.00 | 25 | 1016.4 |
| 20260503224343 | 78 | 351 | 0.0 | 0.0 | 0.00 | 0.00 | 0.00 | 25 | 1016.4 |
| 20260503223320 | 78 | 351 | 0.0 | 0.0 | 0.00 | 0.00 | 0.00 | 25 | 1016.4 |
| 20260503222256 | 78 | 351 | 0.0 | 0.0 | 0.00 | 0.00 | 0.00 | 25 | 1016.4 |
| 20260503221233 | 79 | 351 | 0.0 | 0.0 | 0.00 | 0.00 | 0.00 | 24 | 1016.4 |
| 20260503220210 | 79 | 351 | 0.0 | 0.0 | 0.00 | 0.00 | 0.00 | 25 | 1016.4 |
| 20260503213100 | 79 | 351 | 0.0 | 0.0 | 0.00 | 0.00 | 0.00 | 25 | 1017.4 |
| 20260503212036 | 79 | 351 | 0.0 | 0.0 | 0.00 | 0.00 | 0.00 | 25 | 1017.4 |
| 20260503211013 | 79 | 351 | 0.0 | 0.0 | 0.00 | 0.00 | 0.00 | 25 | 1017.4 |
| 20260503205950 | 79 | 351 | 0.0 | 0.0 | 0.00 | 0.00 | 0.00 | 25 | 1018.4 |
| 20260503204926 | 79 | 351 | 0.0 | 0.0 | 0.00 | 0.00 | 0.00 | 25 | 1018.4 |
| 20260503203903 | 79 | 351 | 0.0 | 0.0 | 0.00 | 0.00 | 0.00 | 25 | 1018.4 |
| 20260503202840 | 79 | 351 | 0.0 | 0.0 | 0.00 | 0.00 | 0.00 | 25 | 1018.4 |
| 20260503201813 | 79 | 351 | 0.0 | 0.0 | 0.00 | 0.00 | 0.00 | 25 | 1018.4 |
| 20260503200750 | 79 | 351 | 0.0 | 0.0 | 0.00 | 0.00 | 0.00 | 26 | 1019.4 |
| 20260503194703 | 78 | 351 | 0.0 | 0.0 | 0.00 | 0.00 | 0.00 | 26 | 1019.4 |
| 20260503193640 | 78 | 351 | 0.0 | 0.0 | 0.00 | 0.00 | 0.00 | 26 | 1019.4 |
| 20260503192616 | 78 | 351 | 0.0 | 0.0 | 0.00 | 0.00 | 0.00 | 27 | 1019.4 |
| 20260503191553 | 78 | 351 | 0.0 | 0.0 | 0.00 | 0.00 | 0.00 | 26 | 1019.4 |
| 20260503190530 | 78 | 351 | 0.0 | 0.0 | 0.00 | 0.00 | 0.00 | 27 | 1020.4 |